FW5860 Weather Reports


time (UTC)temp
F
wind
direction
speed
knots
gust
knots
rain 1hr
in
rain 24hr
in
rain mn
in
humidity
%
barometer
mb
20260505124541 66 266 0.0 0.0 0.00 0.00 0.00 51 1015.3
20260505123054 65 269 0.0 0.9 0.00 0.00 0.00 55 1015.3
20260505121534 62 269 0.0 0.9 0.00 0.00 0.00 60 1015.3
20260505120030 57 268 0.0 0.0 0.00 0.00 0.00 67 1015.2
20260505114524 53 269 0.0 0.0 0.00 0.00 0.00 74 1015.1
20260505113033 47 269 0.0 0.0 0.00 0.00 0.00 75 1015.0
20260505111539 46 269 0.0 0.0 0.00 0.00 0.00 76 1015.1
20260505101519 46 268 0.0 0.0 0.00 0.00 0.00 76 1015.1
20260505100021 47 268 0.0 0.0 0.00 0.00 0.00 75 1015.0
20260505094517 47 269 0.0 0.0 0.00 0.00 0.00 75 1014.9
20260505093014 48 269 0.0 0.0 0.00 0.00 0.00 74 1014.8
20260505091514 48 269 0.0 0.0 0.00 0.00 0.00 73 1014.8
20260505090011 49 269 0.0 0.0 0.00 0.00 0.00 73 1014.8
20260505084516 50 269 0.0 0.9 0.00 0.00 0.00 71 1014.8
20260505083014 50 269 0.0 0.9 0.00 0.00 0.00 71 1014.8
20260505081507 50 29 0.0 0.0 0.00 0.00 0.00 71 1014.7
20260505080020 50 29 0.0 0.9 0.00 0.00 0.00 73 1014.7
20260505074503 51 33 0.0 0.0 0.00 0.00 0.00 72 1014.7
20260505073107 52 33 0.0 0.9 0.00 0.00 0.00 69 1014.8
20260505071504 52 24 0.0 0.9 0.00 0.00 0.00 69 1014.9
20260505070002 53 300 0.0 0.0 0.00 0.00 0.00 68 1014.9
20260505064604 53 297 0.0 0.0 0.00 0.00 0.00 68 1015.1
20260505063058 54 349 0.0 0.9 0.00 0.00 0.00 67 1015.3
20260505061553 55 145 0.0 0.9 0.00 0.00 0.00 67 1015.3
20260505060056 55 295 0.0 1.7 0.00 0.00 0.00 66 1015.3
20260505054600 55 141 0.0 2.6 0.00 0.00 0.00 66 1015.3
20260505053108 55 293 0.0 1.7 0.00 0.00 0.00 67 1015.3
20260505051551 54 205 0.0 2.6 0.00 0.00 0.00 68 1015.4
20260505041608 54 146 0.0 0.0 0.00 0.00 0.00 68 1015.7
20260505040044 55 146 0.0 0.0 0.00 0.00 0.00 67 1015.7
20260505034546 55 146 0.0 0.9 0.00 0.00 0.00 67 1015.9
20260505033044 54 152 0.0 0.9 0.00 0.00 0.00 69 1016.0
20260505031543 54 152 0.0 0.0 0.00 0.00 0.00 68 1016.0
20260505030043 54 152 0.0 0.0 0.00 0.00 0.00 68 1016.0
20260505024546 55 152 0.0 0.0 0.00 0.00 0.00 67 1016.0
20260505023047 55 152 0.0 0.9 0.00 0.00 0.00 66 1015.8
20260505021546 55 247 0.0 0.9 0.00 0.00 0.00 66 1015.8
20260505020042 56 248 0.0 0.0 0.00 0.00 0.00 65 1015.7
20260505014544 57 248 0.0 0.0 0.00 0.00 0.00 65 1015.6
20260505013041 57 247 0.0 0.0 0.00 0.00 0.00 64 1015.6
20260505011543 58 247 0.0 0.0 0.00 0.00 0.00 63 1015.4
20260505010045 58 221 0.0 0.0 0.00 0.00 0.00 62 1015.3
20260505004544 58 218 0.0 0.9 0.00 0.00 0.00 61 1015.2
20260505003042 59 149 0.0 0.0 0.00 0.00 0.00 59 1015.2
20260505001548 61 149 0.0 0.9 0.00 0.00 0.00 57 1015.2
20260505000043 61 145 0.0 1.7 0.00 0.00 0.00 55 1015.1
20260504234541 62 290 0.0 2.6 0.00 0.00 0.00 53 1015.0
20260504233038 63 331 0.0 2.6 0.00 0.00 0.00 52 1014.8
20260504231557 64 300 0.9 3.5 0.00 0.00 0.00 51 1014.8
20260504230045 65 237 0.0 6.1 0.00 0.00 0.00 51 1014.7
20260504224543 66 345 0.0 2.6 0.00 0.00 0.00 50 1014.7
20260504223043 66 22 0.0 1.7 0.00 0.00 0.00 51 1014.8
20260504221538 66 285 0.0 4.3 0.00 0.00 0.00 50 1014.8
20260504220037 66 296 0.0 2.6 0.00 0.00 0.00 49 1015.0
20260504214537 67 250 1.7 7.0 0.00 0.00 0.00 48 1014.9
20260504213035 67 299 0.0 3.5 0.00 0.00 0.00 48 1014.7
20260504211539 67 308 0.9 6.1 0.00 0.00 0.00 49 1014.7
20260504210051 68 54 2.6 7.0 0.00 0.00 0.00 46 1014.7
20260504204536 68 160 0.9 7.0 0.00 0.00 0.00 45 1014.8
20260504203035 68 45 0.9 3.5 0.00 0.00 0.00 46 1014.9
20260504201535 68 103 1.7 7.8 0.00 0.00 0.00 44 1015.0
20260504200033 68 238 0.9 4.3 0.00 0.00 0.00 45 1015.0
20260504194548 68 137 0.0 5.2 0.00 0.00 0.00 43 1015.3
20260504193030 69 117 0.0 5.2 0.00 0.00 0.00 43 1015.5
20260504191532 69 330 0.0 3.5 0.00 0.00 0.00 42 1015.6
20260504190029 69 308 0.9 3.5 0.00 0.00 0.00 41 1016.0
20260504184528 69 184 1.7 5.2 0.00 0.00 0.00 39 1016.1
20260504183020 70 26 0.9 7.0 0.00 0.00 0.00 39 1016.2
20260504181520 70 291 0.9 7.0 0.00 0.00 0.00 36 1016.3
20260504180021 69 15 0.9 3.5 0.00 0.00 0.00 37 1016.4
20260504174517 70 141 0.0 6.1 0.00 0.00 0.00 37 1016.6
20260504173019 69 150 1.7 4.3 0.00 0.00 0.00 26 1016.6
20260504171512 70 295 0.0 2.6 0.00 0.00 0.00 29 1016.9